H1 CPF 2 NER 2021 8 7 9 219 01 glonass122 H2 1004103 9122 37139 2021 8 7 0 0 0 2021 8 10 23 45 0 900 1 1 0 0 0 1 H9 10 0 59433 0.00000 0 4837665.088 -22434882.673 -11012631.541 10 0 59433 900.00000 0 5226095.142 -23553571.570 -8101891.882 10 0 59433 1800.00000 0 5408802.831 -24349855.282 -5032698.826 10 0 59433 2700.00000 0 5427731.034 -24787018.455 -1865025.896 10 0 59433 3600.00000 0 5331411.710 -24839845.712 1339153.711 10 0 59433 4500.00000 0 5172643.014 -24495737.451 4517107.299 10 0 59433 5400.00000 0 5005984.762 -23755306.897 7606601.735 10 0 59433 6300.00000 0 4885182.053 -22632431.268 10547153.539 10 0 59433 7200.00000 0 4860630.197 -21153754.370 13281242.107 10 0 59433 8100.00000 0 4976992.232 -19357662.216 15755459.317 10 0 59433 9000.00000 0 5271073.207 -17292776.450 17921570.608 10 0 59433 9900.00000 0 5770043.597 -15016031.468 19737464.979 10 0 59433 10800.00000 0 6490088.313 -12590418.863 21167974.672 10 0 59433 11700.00000 0 7435538.587 -10082496.617 22185548.721 10 0 59433 12600.00000 0 8598522.474 -7559769.847 22770768.270 10 0 59433 13500.00000 0 9959147.006 -5088054.182 22912695.575 10 0 59433 14400.00000 0 11486202.126 -2728932.391 22609052.306 10 0 59433 15300.00000 0 13138354.320 -537409.755 21866226.513 10 0 59433 16200.00000 0 14865777.559 1440136.032 20699111.057 10 0 59433 17100.00000 0 16612151.345 3167628.034 19130779.435 10 0 59433 18000.00000 0 18316940.935 4620520.346 17192007.842 10 0 59433 18900.00000 0 19917864.007 5786538.610 14920654.759 10 0 59433 19800.00000 0 21353441.093 6665904.393 12360911.549 10 0 59433 20700.00000 0 22565524.473 7271038.283 9562439.477 10 0 59433 21600.00000 0 23501701.829 7625757.856 6579410.032 10 0 59433 22500.00000 0 24117476.648 7764006.929 3469466.680 10 0 59433 23400.00000 0 24378136.873 7728171.168 292627.207 10 0 59433 24300.00000 0 24260236.219 7567051.446 -2889853.622 10 0 59433 25200.00000 0 23752628.377 7333579.808 -6016641.021 10 0 59433 26100.00000 0 22857012.342 7082372.813 -9027476.434 10 0 59433 27000.00000 0 21587966.709 6867223.381 -11864313.112 10 0 59433 27900.00000 0 19972471.130 6738634.558 -14472411.416 10 0 59433 28800.00000 0 18048933.586 6741496.898 -16801374.772 10 0 59433 29700.00000 0 15865761.814 6913005.517 -18806108.281 10 0 59433 30600.00000 0 13479535.434 7280903.490 -20447682.956 10 0 59433 31500.00000 0 10952851.526 7862125.397 -21694089.806 10 0 59433 32400.00000 0 8351929.747 8661899.100 -22520869.577 10 0 59433 33300.00000 0 5744073.136 9673345.597 -22911605.567 10 0 59433 34200.00000 0 3195087.413 10877596.832 -22858268.858 10 0 59433 35100.00000 0 766763.874 12244430.323 -22361407.469 10 0 59433 36000.00000 0 -1485470.622 13733398.152 -21430173.329 10 0 59433 36900.00000 0 -3514638.883 15295407.049 -20082183.681 10 0 59433 37800.00000 0 -5283946.197 16874686.963 -18343216.464 10 0 59433 38700.00000 0 -6768086.889 18411068.306 -16246742.478 10 0 59433 39600.00000 0 -7954067.851 19842473.855 -13833300.593 10 0 59433 40500.00000 0 -8841512.339 21107520.955 -11149725.860 10 0 59433 41400.00000 0 -9442429.255 22148123.558 -8248243.997 10 0 59433 42300.00000 0 -9780456.092 22911982.301 -5185449.358 10 0 59433 43200.00000 0 -9889606.855 23354854.632 -2021186.721 10 0 59433 44100.00000 0 -9812578.264 23442505.582 1182639.920 10 0 59433 45000.00000 0 -9598687.363 23152253.194 4363305.911 10 0 59433 45900.00000 0 -9301530.447 22474040.102 7458524.750 10 0 59433 46800.00000 0 -8976465.814 21410983.508 10407699.274 10 0 59433 47700.00000 0 -8678030.825 19979378.933 13153137.304 10 0 59433 48600.00000 0 -8457406.613 18208157.329 15641204.949 10 0 59433 49500.00000 0 -8360041.319 16137819.280 17823392.519 10 0 59433 50400.00000 0 -8423535.248 13818893.020 19657270.397 10 0 59433 51300.00000 0 -8675879.170 11309983.499 21107315.433 10 0 59433 52200.00000 0 -9134120.844 8675496.992 22145591.888 10 0 59433 53100.00000 0 -9803515.515 5983139.130 22752274.650 10 0 59433 54000.00000 0 -10677194.712 3301292.833 22916006.423 10 0 59433 54900.00000 0 -11736365.054 696386.637 22634084.364 10 0 59433 55800.00000 0 -12951026.013 -1769636.841 21912475.323 10 0 59433 56700.00000 0 -14281173.779 -4041648.176 20765662.353 10 0 59433 57600.00000 0 -15678438.259 -6073359.618 19216328.290 10 0 59433 58500.00000 0 -17088082.655 -7828973.690 17294885.073 10 0 59433 59400.00000 0 -18451280.716 -9284387.301 15038860.040 10 0 59433 60300.00000 0 -19707576.075 -10427905.689 12492152.543 10 0 59433 61200.00000 0 -20797421.272 -11260440.727 9704176.219 10 0 59433 62100.00000 0 -21664691.630 -11795189.392 6728903.732 10 0 59433 63000.00000 0 -22259070.776 -12056809.193 3623832.029 10 0 59433 63900.00000 0 -22538210.288 -12080127.407 448887.255 10 0 59433 64800.00000 0 -22469575.553 -11908439.647 -2734711.029 10 0 59433 65700.00000 0 -22031902.726 -11591469.352 -5865606.235 10 0 59433 66600.00000 0 -21216207.519 -11183073.184 -8883461.449 10 0 59433 67500.00000 0 -20026304.499 -10738787.220 -11730096.459 10 0 59433 68400.00000 0 -18478815.155 -10313315.058 -14350585.458 10 0 59433 69300.00000 0 -16602663.340 -9958061.225 -16694296.352 10 0 59433 70200.00000 0 -14438077.172 -9718811.531 -18715853.583 10 0 59433 71100.00000 0 -12035136.064 -9633656.339 -20376007.401 10 0 59433 72000.00000 0 -9451920.028 -9731243.222 -21642393.733 10 0 59433 72900.00000 0 -6752334.436 -10029432.626 -22490170.378 10 0 59433 73800.00000 0 -4003696.874 -10534414.251 -22902516.862 10 0 59433 74700.00000 0 -1274183.063 -11240323.490 -22870987.173 10 0 59433 75600.00000 0 1369764.855 -12129377.189 -22395706.800 10 0 59433 76500.00000 0 3865961.808 -13172526.705 -21485407.803 10 0 59433 77400.00000 0 6158830.891 -14330604.736 -20157298.395 10 0 59433 78300.00000 0 8201484.009 -15555921.476 -18436766.434 10 0 59433 79200.00000 0 9957444.201 -16794246.098 -16356919.446 10 0 59433 80100.00000 0 11401935.785 -17987092.382 -13957967.280 10 0 59433 81000.00000 0 12522686.122 -19074213.185 -11286457.091 10 0 59433 81900.00000 0 13320203.121 -19996198.315 -8394373.934 10 0 59433 82800.00000 0 13807514.857 -20697064.558 -5338123.928 10 0 59433 83700.00000 0 14009381.094 -21126725.841 -2177420.193 10 0 59433 84600.00000 0 13961009.746 -21243235.723 1025905.416 10 0 59433 85500.00000 0 13706333.315 -21014703.658 4209139.180 10 0 59434 0.00000 0 13295920.220 -20420800.475 7309943.944 10 0 59434 900.00000 0 12784612.417 -19453785.859 10267611.559 10 0 59434 1800.00000 0 12228992.434 -18119013.563 13024280.574 10 0 59434 2700.00000 0 11684791.844 -16434889.810 15526093.367 10 0 59434 3600.00000 0 11204353.462 -14432288.809 17724266.846 10 0 59434 4500.00000 0 10834258.549 -12153449.775 19576054.149 10 0 59434 5400.00000 0 10613221.195 -9650404.332 21045577.751 10 0 59434 6300.00000 0 10570340.007 -6983002.476 22104517.802 10 0 59434 7200.00000 0 10723780.778 -4216622.380 22732643.252 10 0 59434 8100.00000 0 11079944.417 -1419661.907 22918177.267 10 0 59434 9000.00000 0 11633153.062 1339082.026 22657992.212 10 0 59434 9900.00000 0 12365864.749 3993036.371 21957633.216 10 0 59434 10800.00000 0 13249404.583 6480368.592 20831172.806 10 0 59434 11700.00000 0 14245178.714 8746294.035 19300902.249 10 0 59434 12600.00000 0 15306317.581 10745080.719 17396868.184 10 0 59434 13500.00000 0 16379677.608 12441671.787 15156265.616 10 0 59434 14400.00000 0 17408116.386 13812862.213 12622700.548 10 0 59434 15300.00000 0 18332945.787 14847985.006 9845337.498 10 0 59434 16200.00000 0 19096460.970 15549082.502 6877948.646 10 0 59434 17100.00000 0 19644440.738 15930559.240 3777882.601 10 0 59434 18000.00000 0 19928516.473 16018333.772 604971.870 10 0 59434 18900.00000 0 19908312.620 15848526.811 -2579601.311 10 0 59434 19800.00000 0 19553271.219 15465741.513 -5714460.767 10 0 59434 20700.00000 0 18844085.889 14921007.758 -8739193.474 10 0 59434 21600.00000 0 17773686.384 14269475.563 -11595487.981 10 0 59434 22500.00000 0 16347732.830 13567952.610 -14228234.474 10 0 59434 23400.00000 0 14584598.298 12872387.069 -16586567.407 10 0 59434 24300.00000 0 12514838.748 12235399.094 -18624832.525 10 0 59434 25200.00000 0 10180169.750 11703962.646 -20303461.180 10 0 59434 26100.00000 0 7631989.290 11317333.510 -21589735.985 10 0 59434 27000.00000 0 4929504.237 11105309.881 -22458433.460 10 0 59434 27900.00000 0 2137534.279 11086898.903 -22892330.897 10 0 59434 28800.00000 0 -675919.147 11269446.508 -22882566.560 10 0 59434 29700.00000 0 -3442241.313 11648269.415 -22428844.526 10 0 59434 30600.00000 0 -6094805.859 12206807.804 -21539477.776 10 0 59434 31500.00000 0 -8571502.898 12917295.747 -20231265.897 10 0 59434 32400.00000 0 -10817088.846 13741924.748 -18529206.630 10 0 59434 33300.00000 0 -12785259.397 14634454.669 -16466043.742 10 0 59434 34200.00000 0 -14440357.531 15542206.679 -14081657.140 10 0 59434 35100.00000 0 -15758642.997 16408355.663 -11422304.763 10 0 59434 36000.00000 0 -16729067.659 17174425.610 -8539729.334 10 0 59434 36900.00000 0 -17353521.808 17782881.502 -5490146.778 10 0 59434 37800.00000 0 -17646539.330 18179705.926 -2333136.330 10 0 59434 38700.00000 0 -17634473.240 18316848.241 869544.728 10 0 59434 39600.00000 0 -17354176.448 18154438.959 4055196.244 10 0 59434 40500.00000 0 -16851244.826 17662671.760 7161433.327 10 0 59434 41400.00000 0 -16177899.180 16823269.957 10127439.558 10 0 59434 42300.00000 0 -15390598.887 15630472.588 12895187.327 10 0 59434 43200.00000 0 -14547491.829 14091496.599 15410598.371 10 0 59434 44100.00000 0 -13705812.216 12226454.858 17624619.224 10 0 59434 45000.00000 0 -12919339.649 10067733.905 19494188.704 10 0 59434 45900.00000 0 -12236029.408 7658858.902 20983077.641 10 0 59434 46800.00000 0 -11695915.541 5052895.455 22062584.544 10 0 59434 47700.00000 0 -11329375.551 2310457.641 22712074.563 10 0 59434 48600.00000 0 -11155828.926 -502592.206 22919353.051 10 0 59434 49500.00000 0 -11182922.363 -3317654.136 22680868.876 10 0 59434 50400.00000 0 -11406233.141 -6066005.893 22001746.254 10 0 59434 51300.00000 0 -11809499.839 -8681413.930 20895647.472 10 0 59434 52200.00000 0 -12365367.252 -11102632.587 19384472.000 10 0 59434 53100.00000 0 -13036611.055 -13275689.454 17497900.418 10 0 59434 54000.00000 0 -13777788.139 -15155864.964 15272794.141 10 0 59434 54900.00000 0 -14537241.505 -16709287.539 12752464.105 10 0 59434 55800.00000 0 -15259374.651 -17914081.902 9985823.587 10 0 59434 56700.00000 0 -15887100.001 -18761026.847 7026441.806 10 0 59434 57600.00000 0 -16364359.521 -19253698.808 3931516.268 10 0 59434 58500.00000 0 -16638613.301 -19408098.397 760782.857 10 0 59434 59400.00000 0 -16663193.683 -19251777.818 -2424616.688 10 0 59434 60300.00000 0 -16399428.282 -18822507.004 -5563289.912 10 0 59434 61200.00000 0 -15818444.822 -18166534.550 -8594751.082 10 0 59434 62100.00000 0 -14902583.572 -17336515.572 -11460560.942 10 0 59434 63000.00000 0 -13646358.859 -16389191.813 -14105429.081 10 0 59434 63900.00000 0 -12056929.220 -15382919.093 -16478259.774 10 0 59434 64800.00000 0 -10154055.212 -14375143.375 -18533123.120 10 0 59434 65700.00000 0 -7969544.289 -13419928.908 -20230134.267 10 0 59434 66600.00000 0 -5546202.782 -12565640.107 -21536224.769 10 0 59434 67500.00000 0 -2936334.727 -11852873.020 -22425791.579 10 0 59434 68400.00000 0 -199845.795 -11312722.658 -22881210.881 10 0 59434 69300.00000 0 2597972.973 -10965459.354 -22893205.748 10 0 59434 70200.00000 0 5388893.369 -10819671.157 -22461058.804 10 0 59434 71100.00000 0 8104331.567 -10871910.579 -21592663.399 10 0 59434 72000.00000 0 10677957.782 -11106863.468 -20304409.473 10 0 59434 72900.00000 0 13048226.522 -11498036.121 -18620903.218 10 0 59434 73800.00000 0 15160721.955 -12008934.855 -16574522.822 10 0 59434 74700.00000 0 16970219.278 -12594690.971 -14204816.082 10 0 59434 75600.00000 0 18442374.009 -13204064.391 -11557749.199 10 0 59434 76500.00000 0 19554965.951 -13781742.083 -8684819.718 10 0 59434 77400.00000 0 20298643.001 -14270833.593 -5642050.251 10 0 59434 78300.00000 0 20677131.282 -14615456.396 -2488882.814 10 0 59434 79200.00000 0 20706901.117 -14763298.803 713003.329 10 0 59434 80100.00000 0 20416302.297 -14668048.360 3900925.043 10 0 59434 81000.00000 0 19844205.634 -14291578.953 7012452.964 10 0 59434 81900.00000 0 19038209.824 -13605800.169 9986665.590 10 0 59434 82800.00000 0 18052492.045 -12594087.298 12765371.859 10 0 59434 83700.00000 0 16945396.436 -11252228.979 15294275.198 10 0 59434 84600.00000 0 15776866.016 -9588850.976 17524053.685 10 0 59434 85500.00000 0 14605829.996 -7625297.899 19411333.277 10 0 59435 0.00000 0 13487659.673 -5394978.597 20919534.169 10 0 59435 900.00000 0 12471802.438 -2942203.879 22019573.885 10 0 59435 1800.00000 0 11599693.656 -320568.343 22690413.985 10 0 59435 2700.00000 0 10903035.451 2409054.986 22919441.875 10 0 59435 3600.00000 0 10402511.358 5180820.444 22702682.468 10 0 59435 4500.00000 0 10106989.588 7926418.687 22044838.320 10 0 59435 5400.00000 0 10013244.353 10577683.547 20959160.487 10 0 59435 6300.00000 0 10106203.402 13069188.708 19467155.429 10 0 59435 7200.00000 0 10359707.625 15340727.453 17598136.274 10 0 59435 8100.00000 0 10737747.481 17339574.751 15388629.296 10 0 59435 9000.00000 0 11196121.703 19022440.738 12881648.670 10 0 59435 9900.00000 0 11684446.823 20357037.891 10125854.596 10 0 59435 10800.00000 0 12148432.388 21323200.540 7174611.366 10 0 59435 11700.00000 0 12532326.423 21913513.840 4084963.289 10 0 59435 12600.00000 0 12781429.492 22133429.207 916547.422 10 0 59435 13500.00000 0 12844573.342 22000864.075 -2269537.272 10 0 59435 14400.00000 0 12676462.061 21545304.347 -5411884.356 10 0 59435 15300.00000 0 12239779.404 20806447.769 -8449937.661 10 0 59435 16200.00000 0 11506975.573 19832444.647 -11325132.316 10 0 59435 17100.00000 0 10461659.537 18677808.264 -13981999.371 10 0 59435 18000.00000 0 9099538.826 17401080.514 -16369214.851 10 0 59435 18900.00000 0 7428866.615 16062348.022 -18440574.971 10 0 59435 19800.00000 0 5470375.559 14720710.139 -20155880.310 10 0 59435 20700.00000 0 3256698.317 13431802.416 -21481712.837 10 0 59435 21600.00000 0 831295.259 12245477.284 -22392091.273 10 0 59435 22500.00000 0 -1753070.197 11203737.807 -22868991.866 10 0 59435 23400.00000 0 -4436249.486 10339010.785 -22902723.443 10 0 59435 24300.00000 0 -7152944.507 9672832.135 -22492147.850 10 0 59435 25200.00000 0 -9835171.625 9215001.247 -21644739.131 10 0 59435 26100.00000 0 -12414854.327 8963242.083 -20376477.510 10 0 59435 27000.00000 0 -14826438.308 8903388.017 -18711577.140 10 0 59435 27900.00000 0 -17009420.613 9010085.517 -16682049.735 10 0 59435 28800.00000 0 -18910686.485 9247989.713 -14327109.708 10 0 59435 29700.00000 0 -20486554.669 9573403.445 -11692429.948 10 0 59435 30600.00000 0 -21704443.082 9936291.694 -8829261.013 10 0 59435 31500.00000 0 -22544082.140 10282586.222 -5793430.195 10 0 59435 32400.00000 0 -22998222.081 10556681.648 -2644240.167 10 0 59435 33300.00000 0 -23072802.247 10704014.895 556710.088 10 0 59435 34200.00000 0 -22786573.748 10673615.434 3746756.814 10 0 59435 35100.00000 0 -22170191.094 10420514.421 6863428.655 10 0 59435 36000.00000 0 -21264812.000 9907906.631 9845701.615 10 0 59435 36900.00000 0 -20120266.399 9108969.919 12635223.843 10 0 59435 37800.00000 0 -18792874.863 8008262.147 15177483.141 10 0 59435 38700.00000 0 -17343011.901 6602634.378 17422891.781 10 0 59435 39600.00000 0 -15832520.433 4901620.770 19327765.398 10 0 59435 40500.00000 0 -14322089.645 2927288.838 20855175.924 10 0 59435 41400.00000 0 -12868709.063 713557.322 21975661.875 10 0 59435 42300.00000 0 -11523307.405 -1694987.854 22667782.970 10 0 59435 43200.00000 0 -10328675.583 -4244727.857 22918510.053 10 0 59435 44100.00000 0 -9317759.953 -6875024.994 22723445.048 10 0 59435 45000.00000 0 -8512395.158 -9520530.539 22086869.414 10 0 59435 45900.00000 0 -7922526.460 -12113689.023 21021623.128 10 0 59435 46800.00000 0 -7545950.318 -14587334.378 19548819.394 10 0 59435 47700.00000 0 -7368580.002 -16877270.458 17697403.241 10 0 59435 48600.00000 0 -7365221.192 -18924730.274 15503564.770 10 0 59435 49500.00000 0 -7500821.600 -20678614.106 13010020.008 10 0 59435 50400.00000 0 -7732139.557 -22097416.441 10265174.362 10 0 59435 51300.00000 0 -8009759.869 -23150765.053 7322185.192 10 0 59435 52200.00000 0 -8280371.624 -23820511.699 4237941.347 10 0 59435 53100.00000 0 -8489212.608 -24101332.199 1071978.580 10 0 59435 54000.00000 0 -8582578.734 -24000813.695 -2114649.597 10 0 59435 54900.00000 0 -8510294.733 -23539027.377 -5260525.623 10 0 59435 55800.00000 0 -8228044.224 -22747605.547 -8305025.909 10 0 59435 56700.00000 0 -7699463.161 -21668361.641 -11189463.102 10 0 59435 57600.00000 0 -6897910.141 -20351509.889 -13858192.919 10 0 59435 58500.00000 0 -5807840.097 -18853557.315 -16259666.308 10 0 59435 59400.00000 0 -4425723.536 -17234953.782 -18347408.652 10 0 59435 60300.00000 0 -2760471.559 -15557595.569 -20080908.761 10 0 59435 61200.00000 0 -833346.601 -13882284.110 -21426401.469 10 0 59435 62100.00000 0 1322640.691 -12266243.666 -22357529.270 10 0 59435 63000.00000 0 3663827.309 -10760799.773 -22855869.951 10 0 59435 63900.00000 0 6137445.131 -9409314.509 -22911319.040 10 0 59435 64800.00000 0 8683559.624 -8245464.763 -22522318.013 10 0 59435 65700.00000 0 11237323.362 -7291936.339 -21695921.503 10 0 59435 66600.00000 0 13731453.830 -6559590.263 -20447699.449 10 0 59435 67500.00000 0 16098834.689 -6047138.496 -18801472.935 10 0 59435 68400.00000 0 18275133.170 -5741345.225 -16788885.747 10 0 59435 69300.00000 0 20201324.194 -5617747.868 -14448817.019 10 0 59435 70200.00000 0 21826014.391 -5641869.517 -11826644.012 10 0 59435 71100.00000 0 23107466.537 -5770873.091 -8973367.560 10 0 59435 72000.00000 0 24015236.541 -5955587.711 -5944616.537 10 0 59435 72900.00000 0 24531351.253 -6142820.836 -2799550.868 10 0 59435 73800.00000 0 24650974.700 -6277856.312 400314.323 10 0 59435 74700.00000 0 24382532.533 -6307029.636 3592338.296 10 0 59435 75600.00000 0 23747288.278 -6180267.576 6714011.243 10 0 59435 76500.00000 0 22778389.209 -5853480.505 9704209.995 10 0 59435 77400.00000 0 21519423.283 -5290702.141 12504424.899 10 0 59435 78300.00000 0 20022550.225 -4465882.583 15059930.735 10 0 59435 79200.00000 0 18346288.534 -3364256.110 17320876.113 10 0 59435 80100.00000 0 16553055.063 -1983224.291 19243268.042 10 0 59435 81000.00000 0 14706564.020 -332716.640 20789831.430 10 0 59435 81900.00000 0 12869197.569 1564985.949 21930726.656 10 0 59435 82800.00000 0 11099460.429 3675956.102 22644112.019 10 0 59435 83700.00000 0 9449626.028 5955821.723 22916541.830 10 0 59435 84600.00000 0 7963672.339 8351412.141 22743194.697 10 0 59435 85500.00000 0 6675592.138 10802777.666 22127930.301 10 0 59436 0.00000 0 5608145.465 13245496.684 21083176.562 10 0 59436 900.00000 0 4772102.906 15613173.260 19629652.059 10 0 59436 1800.00000 0 4166006.682 17840021.029 17795932.183 10 0 59436 2700.00000 0 3776456.215 19863426.563 15617869.067 10 0 59436 3600.00000 0 3578900.976 21626387.817 13137878.609 10 0 59436 4500.00000 0 3538904.980 23079728.039 10404109.282 10 0 59436 5400.00000 0 3613826.894 24183996.372 7469509.243 10 0 59436 6300.00000 0 3754843.950 24910979.115 4390809.495 10 0 59436 7200.00000 0 3909234.188 25244761.847 1227442.007 10 0 59436 8100.00000 0 4022821.691 25182300.908 -1959587.687 10 0 59436 9000.00000 0 4042483.299 24733482.572 -5108853.428 10 0 59436 9900.00000 0 3918613.226 23920668.713 -8159666.657 10 0 59436 10800.00000 0 3607443.902 22777748.280 -11053219.883 10 0 59436 11700.00000 0 3073127.227 21348733.531 -13733695.658 10 0 59436 12600.00000 0 2289490.075 19685958.083 -16149321.830 10 0 59436 13500.00000 0 1241390.753 17847949.707 -18253354.724 10 0 59436 14400.00000 0 -74381.062 15897063.868 -20004972.945 10 0 59436 15300.00000 0 -1648700.242 13896973.814 -21370065.554 10 0 59436 16200.00000 0 -3460217.617 11910119.094 -22321899.957 10 0 59436 17100.00000 0 -5475985.865 9995216.499 -22841656.397 10 0 59436 18000.00000 0 -7652577.899 8204935.637 -22918817.732 10 0 59436 18900.00000 0 -9937655.608 6583835.260 -22551405.367 10 0 59436 19800.00000 0 -12271927.909 5166646.595 -21746054.452 10 0 59436 20700.00000 0 -14591420.200 3976976.496 -20517924.133 10 0 59436 21600.00000 0 -16829963.536 3026486.369 -18890441.508 10 0 59436 22500.00000 0 -18921801.447 2314583.506 -16894881.096 10 0 59436 23400.00000 0 -20804205.909 1828640.244 -14569785.083 10 0 59436 24300.00000 0 -22419992.320 1544733.878 -11960233.140 10 0 59436 25200.00000 0 -23719826.194 1428877.824 -9116974.228 10 0 59436 26100.00000 0 -24664222.025 1438692.873 -6095436.515 10 0 59436 27000.00000 0 -25225147.124 1525447.643 -2954634.815 10 0 59436 27900.00000 0 -25387159.734 1636380.437 244002.032 10 0 59436 28800.00000 0 -25148030.667 1717201.721 3437858.778 10 0 59436 29700.00000 0 -24518820.272 1714667.779 6564389.682 10 0 59436 30600.00000 0 -23523406.563 1579112.540 9562374.950 10 0 59436 31500.00000 0 -22197484.726 1266826.260 12373149.675 10 0 59436 32400.00000 0 -20587081.609 742176.480 14941778.097 10 0 59436 33300.00000 0 -18746650.212 -20621.645 17218147.529 10 0 59436 34200.00000 0 -16736827.440 -1036162.675 19157958.508 10 0 59436 35100.00000 0 -14621952.650 -2306993.689 20723590.794 10 0 59436 36000.00000 0 -12467454.185 -3823278.732 21884828.164 10 0 59436 36900.00000 0 -10337215.915 -5562997.993 22619428.660 10 0 59436 37800.00000 0 -8291035.411 -7492671.663 22913530.823 10 0 59436 38700.00000 0 -6382280.252 -9568575.946 22761890.329 10 0 59436 39600.00000 0 -4655839.334 -11738398.030 22167945.113 10 0 59436 40500.00000 0 -3146452.395 -13943258.826 21143710.669 10 0 59436 41400.00000 0 -1877484.101 -16120017.597 19709510.450 10 0 59436 42300.00000 0 -860189.881 -18203761.554 17893549.247 10 0 59436 43200.00000 0 -93499.680 -20130376.877 15731340.053 10 0 59436 44100.00000 0 435675.695 -21839095.078 13264997.197 10 0 59436 45000.00000 0 751632.408 -23274910.468 10542410.529 10 0 59436 45900.00000 0 888592.850 -24390770.504 7616317.085 10 0 59436 46800.00000 0 889012.305 -25149450.628 4543287.912 10 0 59436 47700.00000 0 801545.221 -25525038.341 1382648.913 10 0 59436 48600.00000 0 678756.697 -25503967.401 -1804644.782 10 0 59436 49500.00000 0 574674.540 -25085561.218 -4957160.972 10 0 59436 50400.00000 0 542283.320 -24282064.266 -8014148.815 10 0 59436 51300.00000 0 631063.924 -23118160.813 -10916683.451 10 0 59436 52200.00000 0 884680.130 -21630000.661 -13608777.101 10 0 59436 53100.00000 0 1338907.777 -19863771.238 -16038437.320 10 0 59436 54000.00000 0 2019892.533 -17873873.442 -18158654.096 10 0 59436 54900.00000 0 2942809.256 -15720774.481 -19928298.340 10 0 59436 55800.00000 0 4110980.078 -13468624.129 -21312915.551 10 0 59436 56700.00000 0 5515490.147 -11182730.507 -22285399.872 10 0 59436 57600.00000 0 7135320.149 -8926997.641 -22826535.368 10 0 59436 58500.00000 0 8937993.816 -6761429.238 -22925393.112 10 0 59436 59400.00000 0 10880717.680 -4739801.169 -22579574.837 10 0 59436 60300.00000 0 12911969.896 -2907598.995 -21795296.135 10 0 59436 61200.00000 0 14973475.795 -1300307.048 -20587304.843 10 0 59436 62100.00000 0 17002491.109 57878.320 -18978633.130 10 0 59436 63000.00000 0 18934299.829 1154855.660 -17000184.896 10 0 59436 63900.00000 0 20704823.270 1990909.404 -14690163.610 10 0 59436 64800.00000 0 22253230.962 2578470.510 -12093349.184 10 0 59436 65700.00000 0 23524442.425 2941354.974 -9260236.136 10 0 59436 66600.00000 0 24471412.269 3113511.067 -6246049.012 10 0 59436 67500.00000 0 25057099.377 3137328.015 -3109654.300 10 0 59436 68400.00000 0 25256033.808 3061578.476 87608.834 10 0 59436 69300.00000 0 25055412.070 2939083.883 3283154.091 10 0 59436 70200.00000 0 24455671.923 2824204.529 6414403.187 10 0 59436 71100.00000 0 23470520.648 2770264.422 9420042.910 10 0 59436 72000.00000 0 22126415.027 2827024.055 12241256.028 10 0 59436 72900.00000 0 20461515.510 3038312.117 14822898.821 10 0 59436 73800.00000 0 18524160.307 3439919.899 17114599.504 10 0 59436 74700.00000 0 16370926.156 4057850.118 19071753.945 10 0 59436 75600.00000 0 14064360.236 4906995.780 20656398.151 10 0 59436 76500.00000 0 11670481.408 5990305.350 21837940.307 10 0 59436 77400.00000 0 9256158.141 7298468.777 22593738.810 10 0 59436 78300.00000 0 6886474.677 8810136.110 22909516.663 10 0 59436 79200.00000 0 4622196.201 10492657.442 22779606.441 10 0 59436 80100.00000 0 2517438.437 12303310.692 22207023.757 10 0 59436 81000.00000 0 617637.112 14190963.495 21203370.748 10 0 59436 81900.00000 0 -1042100.951 16098097.749 19788574.352 10 0 59436 82800.00000 0 -2438200.065 17963110.829 17990467.113 10 0 59436 83700.00000 0 -3559325.454 19722796.912 15844220.936 10 0 59436 84600.00000 0 -4406575.520 21314905.237 13391646.396 10 0 59436 85500.00000 0 -4993152.815 22680669.711 10680372.385 99